Find Starlink 30172

NORAD ID: 57410 Int'l Des: 2023-102 Owner: SPXS Country: US Constellation: starlink operational
LEOCIRCULAR

当前视图

正在加载3D地球...

About Starlink 30172

Starlink 30172 (NORAD 57410) is a starlink constellation satellite (v2 mini) launched Jul 19, 2023 by SPXS of US. It operates in LEO, CIRCULAR orbit with a mass of 730.00 kg.

即将过境

Passes for default location (London). Set your location on the main map for personalized predictions.

高度历史

Loading altitude history...

两行轨道根数

1 57410U 23102G 26264.26255279 .00053342 00000-0 10850-2 0 9996
2 57410 42.9990 221.1765 0001316 248.6102 111.4616 15.45498552176181
Epoch: Sep 21, 2026 • Age: 7 hours

当前状态

高度 429.0 km
远地点 / 近地点 N/A
速度 7.66 km/s
星下点 2.94°N, 163°W
发射日期 Jul 19, 2023
运行时间 3.1 years
类型 internet

技术详情

分类 Payload
质量 730.00 kg
干质量 700.00 kg
长度 0.30 m
跨度 29.00 m
形状 ? Box + pan
制造商 SPXS
平台类型 Starlink V2M
阶段状态 In Orbit
所有者/国家 SPXS/US

Most Searched